Location: Cypress Hills Dark-Sky Preserve - CHICO
(49.6176°N, 110.2634°W)
Time: 23:09:02
(UTC-07:00)

Amateur Radio Satellites - All Passes

Search period start: 19 November 2017 22:39
Search period end: 20 November 2017 22:39
Location: Cypress Hills Dark-Sky Preserve - CHICO, 49.6176°N, 110.2634°W

Satellite Date Start Highest point End Downlink Frequencies (MHz)
Time Altitude Azimuth
VELOX 1 19 Nov 22:41:35 22:44:18 16° 58° (ENE) 22:47:02 145.980
PRISM 19 Nov 23:01:51 23:06:03 75° 104° (ESE) 23:10:13 437.425
SO-50 19 Nov 23:02:59 23:07:27 83° 127° (SE) 23:12:00 436.795
UNISAT 6 19 Nov 23:10:14 23:14:11 35° 293° (WNW) 23:18:03 437.425
DUCHIFAT 1 19 Nov 23:13:41 23:14:14 10° 86° (E) 23:14:45 145.980
TIGRISAT 19 Nov 23:15:02 23:18:57 35° 293° (WNW) 23:22:48 435.000
EO-79 19 Nov 23:17:25 23:19:52 15° 89° (E) 23:22:17 145.935-145.965
O/OREOS (USA 219) 19 Nov 23:20:26 23:25:02 81° 63° (ENE) 23:29:34 437.305
NANOSAT C BR1 19 Nov 23:21:45 23:24:08 15° 89° (E) 23:26:30 145.865
POLYITAN 1 19 Nov 23:31:45 23:34:55 20° 92° (E) 23:38:03 437.675
nSIGHT-1 19 Nov 23:32:22 23:35:35 82° 342° (NNW) 23:38:49 .
DX 1 19 Nov 23:32:32 23:34:43 14° 56° (NE) 23:36:54 434.975-435.025
LO-87 19 Nov 23:37:06 23:39:52 20° 267° (W) 23:42:38 145.935 - 145.965
FO-29 19 Nov 23:47:13 23:51:58 18° 315° (NW) 23:56:42 435.910
RS-15 19 Nov 23:48:22 23:59:40 39° 357° (N) 00:10:35 29.354- 29.394
SPROUT 19 Nov 23:48:39 23:52:56 87° 80° (E) 23:57:16 437.525
ESTCUBE 1 19 Nov 23:49:43 23:53:34 28° 266° (W) 23:57:26 437.505/2401.250
QB50P2 19 Nov 23:54:25 23:58:21 37° 97° (E) 00:02:15 145.880/145.840
NO-84 20 Nov 00:07:26 00:09:02 12° 235° (SW) 00:10:36 435.350 FM
AIST 2D 20 Nov 00:09:15 00:12:41 50° 288° (WNW) 00:16:06 435.315
ISS 20 Nov 00:11:38 00:14:54 66° 350° (N) 00:18:09 437.550
BUGSAT 1 20 Nov 00:11:56 00:12:45 10° 87° (E) 00:13:35 437.445
VELOX 1 20 Nov 00:15:45 00:20:12 76° 258° (WSW) 00:24:41 145.980
UKube-1 20 Nov 00:16:25 00:19:43 22° 61° (ENE) 00:23:02 .
50 SAT 20 Nov 00:17:04 00:19:50 26° 67° (ENE) 00:22:37 437.505
Oscar 19 20 Nov 00:24:51 00:25:34 10° 84° (E) 00:26:17 437.125/150
PCSat 20 Nov 00:27:15 00:32:03 33° 113° (ESE) 00:36:53 145.827
PRISM 20 Nov 00:38:26 00:40:46 15° 302° (WNW) 00:43:07 437.425
Gurwin Techsat 1B 20 Nov 00:38:28 00:39:06 10° 83° (E) 00:39:44 435.225
SO-50 20 Nov 00:44:47 00:48:27 24° 330° (NNW) 00:52:10 436.795
DUCHIFAT 1 20 Nov 00:46:20 00:50:33 89° 111° (ESE) 00:54:42 145.980
EO-79 20 Nov 00:51:52 00:56:03 64° 288° (WNW) 01:00:11 145.935-145.965
NANOSAT C BR1 20 Nov 00:56:07 01:00:17 65° 287° (WNW) 01:04:24 145.865
O/OREOS (USA 219) 20 Nov 01:01:29 01:03:47 14° 262° (W) 01:06:02 437.305
DX 1 20 Nov 01:05:52 01:10:14 90° 23° (NNE) 01:14:39 434.975-435.025
POLYITAN 1 20 Nov 01:06:54 01:10:55 45° 290° (WNW) 01:14:55 437.675
nSIGHT-1 20 Nov 01:08:49 01:12:00 58° 4° (N) 01:15:10 .
MOZHAYETS 4 20 Nov 01:12:55 01:15:50 17° 58° (ENE) 01:18:46
SPROUT 20 Nov 01:28:03 01:29:27 11° 273° (W) 01:30:52 437.525
QB50P2 20 Nov 01:30:30 01:34:00 26° 296° (WNW) 01:37:29 145.880/145.840
BUGSAT 1 20 Nov 01:44:39 01:48:44 85° 285° (WNW) 01:52:44 437.445
ISS 20 Nov 01:48:18 01:51:34 67° 10° (N) 01:54:50 437.550
50 SAT 20 Nov 01:49:22 01:51:56 21° 265° (W) 01:54:32 437.505
UKube-1 20 Nov 01:51:14 01:55:26 50° 260° (W) 01:59:40 .
Oscar 19 20 Nov 02:00:41 02:05:51 69° 103° (ESE) 02:11:00 437.125/150
RS-15 20 Nov 02:03:37 02:15:27 52° 30° (NNE) 02:26:38 29.354- 29.394
PCSat 20 Nov 02:10:00 02:15:16 51° 313° (NW) 02:20:36 145.827
BEESAT 20 Nov 02:13:40 02:18:14 47° 68° (ENE) 02:22:49 436.000
Gurwin Techsat 1B 20 Nov 02:14:45 02:20:05 67° 102° (ESE) 02:25:22 435.225
ITUPSAT 1 20 Nov 02:22:17 02:26:58 55° 69° (ENE) 02:31:38 437.325
DUCHIFAT 1 20 Nov 02:23:44 02:25:34 13° 303° (WNW) 02:27:23 145.980
SO-50 20 Nov 02:28:27 02:30:30 13° 354° (N) 02:32:33 436.795
nSIGHT-1 20 Nov 02:45:07 02:48:18 65° 204° (SSW) 02:51:28 .
DX 1 20 Nov 02:45:39 02:47:04 11° 273° (W) 02:48:30 434.975-435.025
MOZHAYETS 4 20 Nov 02:47:54 02:52:28 73° 258° (WSW) 02:57:03
CUBESAT XI-V 20 Nov 02:56:08 03:00:21 37° 67° (ENE) 03:04:36 437.345
BEESAT 3 20 Nov 03:02:06 03:05:31 27° 118° (ESE) 03:08:56 437.485
AO-7 20 Nov 03:06:55 03:14:21 34° 95° (E) 03:21:45 .
M-CUBED/EXP-1 PRIME 20 Nov 03:07:07 03:11:30 50° 106° (ESE) 03:16:00 437.505
KKS-1 20 Nov 03:14:33 03:17:31 18° 58° (ENE) 03:20:29 437.445
BUGSAT 1 20 Nov 03:22:06 03:23:23 11° 304° (NW) 03:24:40 437.445
ISS 20 Nov 03:24:52 03:27:59 42° 209° (SSW) 03:31:06 437.550
Oscar 19 20 Nov 03:40:52 03:44:42 21° 302° (WNW) 03:48:32 437.125/150
STARS 20 Nov 03:43:09 03:45:37 15° 56° (ENE) 03:48:03 437.465
ITAMSAT 1 20 Nov 03:50:16 03:55:17 45° 99° (E) 04:00:15 435.822/435.867
BEESAT 20 Nov 03:52:18 03:56:13 25° 267° (W) 04:00:10 436.000
Gurwin Techsat 1B 20 Nov 03:55:29 03:59:35 23° 302° (WNW) 04:03:41 435.225
PCSat 20 Nov 03:56:22 03:59:58 18° 337° (NNW) 04:03:34 145.827
ITUPSAT 1 20 Nov 04:01:26 04:05:06 22° 268° (W) 04:08:47 437.325
SO-50 20 Nov 04:09:53 04:12:48 16° 19° (NNE) 04:15:45 436.795
BEESAT 2 20 Nov 04:09:55 04:13:41 39° 121° (ESE) 04:17:29 435.950
RS-15 20 Nov 04:16:50 04:28:41 72° 239° (WSW) 04:39:54 29.354- 29.394
AO-85 20 Nov 04:21:20 04:24:20 21° 115° (ESE) 04:27:26 145.980
nSIGHT-1 20 Nov 04:22:13 04:24:04 14° 222° (SW) 04:25:53 .
CUBESAT XI-V 20 Nov 04:33:46 04:37:47 29° 265° (W) 04:41:51 437.345
BEESAT 3 20 Nov 04:39:05 04:42:54 42° 317° (NW) 04:46:45 437.485
M-CUBED/EXP-1 PRIME 20 Nov 04:41:58 04:45:38 25° 303° (WNW) 04:49:23 437.505
KKS-1 20 Nov 04:49:07 04:53:35 70° 257° (WSW) 04:58:05 437.445
AO-7 20 Nov 04:59:25 05:07:41 68° 296° (WNW) 05:15:56 .
DOVE 4 20 Nov 04:59:39 05:04:38 42° 96° (E) 05:09:25 437.250
STRAND 1 20 Nov 04:59:52 05:02:17 13° 52° (NE) 05:04:42 437.568
YUBILEINY 20 Nov 05:13:40 05:21:44 43° 86° (E) 05:29:51 435.215
CUTE-I 20 Nov 05:15:10 05:17:18 12° 85° (E) 05:19:25 437.470
STARS 20 Nov 05:16:53 05:21:20 85° 254° (WSW) 05:25:48 437.465
ITAMSAT 1 20 Nov 05:30:03 05:34:35 31° 298° (WNW) 05:39:06 435.822/435.867
PCSat 20 Nov 05:43:27 05:45:40 12° 3° (N) 05:47:54 145.827
KAITUO 1B 20 Nov 05:43:53 05:46:15 16° 91° (E) 05:48:37 145.475/437.950
BEESAT 2 20 Nov 05:47:47 05:51:28 33° 321° (NW) 05:55:11 435.950
SO-50 20 Nov 05:49:53 05:54:21 46° 42° (NE) 05:58:51 436.795
XW-2D 20 Nov 05:54:56 05:58:16 28° 95° (E) 06:01:36 145.860 - 145.880
AO-85 20 Nov 06:00:31 06:04:22 51° 316° (NW) 06:08:28 145.980
XW-2B 20 Nov 06:09:33 06:13:08 38° 98° (E) 06:16:43 145.730 - 145.750
CUTE 1.7 + AOD 2 20 Nov 06:13:51 06:15:53 13° 87° (E) 06:17:55 437.475
HO-68 20 Nov 06:18:46 06:24:17 23° 89° (E) 06:29:45 435.675
BEESAT 3 20 Nov 06:19:26 06:21:26 13° 339° (NNW) 06:23:26 437.485
NUDT-PHONESAT 20 Nov 06:29:45 06:33:20 45° 99° (E) 06:36:55 437.300
RS-15 20 Nov 06:31:06 06:38:48 21° 263° (W) 06:46:18 29.354- 29.394
FO-29 20 Nov 06:32:55 06:38:41 29° 55° (NE) 06:44:56 435.910
XW-2C 20 Nov 06:34:56 06:38:45 77° 103° (ESE) 06:42:34 145.795 - 145.815
LilacSat-2 20 Nov 06:35:25 06:39:15 83° 100° (E) 06:43:07 437.200
STRAND 1 20 Nov 06:35:27 06:40:35 70° 72° (ENE) 06:45:43 437.568
DOVE 4 20 Nov 06:37:31 06:42:11 33° 296° (WNW) 06:46:40 437.250
SEEDS 20 Nov 06:46:01 06:48:53 17° 90° (E) 06:51:44 437.485
XW-2F 20 Nov 06:46:46 06:50:35 84° 284° (WNW) 06:54:23 145.980 - 146.000
CUTE-I 20 Nov 06:52:52 06:58:16 76° 104° (ESE) 07:03:38 437.470
AO-7 20 Nov 06:53:12 06:59:04 22° 319° (NW) 07:04:57 .
CUBEBUG 2 20 Nov 06:56:55 07:00:04 20° 91° (E) 07:03:10 437.445
STARS 20 Nov 06:57:17 06:58:22 11° 274° (W) 06:59:27 437.465
AAUSAT CUBESAT 2 20 Nov 06:58:17 06:58:56 10° 86° (E) 06:59:34 437.432
YUBILEINY 20 Nov 07:09:54 07:18:24 52° 289° (WNW) 07:27:01 435.215
KAITUO 1B 20 Nov 07:16:51 07:20:30 49° 289° (WNW) 07:24:08 145.475/437.950
PCSat 20 Nov 07:27:07 07:31:14 21° 29° (NNE) 07:35:20 145.827
BEESAT 2 20 Nov 07:28:46 07:30:22 12° 343° (NNW) 07:31:59 435.950
XW-2D 20 Nov 07:29:08 07:32:23 27° 293° (WNW) 07:35:39 145.860 - 145.880
SO-50 20 Nov 07:30:34 07:34:42 33° 241° (WSW) 07:38:53 436.795
AO-85 20 Nov 07:43:17 07:45:46 15° 339° (NNW) 07:48:21 145.980
XW-2B 20 Nov 07:44:12 07:47:06 21° 296° (WNW) 07:49:59 145.730 - 145.750
CUTE 1.7 + AOD 2 20 Nov 07:47:58 07:52:14 76° 286° (WNW) 07:56:30 437.475
ZACube-1 20 Nov 07:48:55 07:52:10 22° 92° (E) 07:55:25 437.345
UWE-3 20 Nov 07:55:35 07:59:36 45° 99° (E) 08:03:35 435.000/436.395/437.385
NUDT-PHONESAT 20 Nov 08:04:22 08:06:53 18° 297° (WNW) 08:09:23 437.300
HO-68 20 Nov 08:05:36 08:12:51 83° 290° (WNW) 08:20:02 435.675
XW-2A 20 Nov 08:09:30 08:12:50 61° 101° (E) 08:16:10 145.665 - 145.685
XW-2C 20 Nov 08:10:47 08:12:23 12° 301° (WNW) 08:13:59 145.795 - 145.815
LilacSat-2 20 Nov 08:11:34 08:12:56 12° 302° (WNW) 08:14:20 437.200
FO-29 20 Nov 08:16:17 08:23:00 76° 257° (WSW) 08:30:34 435.910
STRAND 1 20 Nov 08:16:40 08:20:16 19° 270° (W) 08:23:55 437.568
SEEDS 20 Nov 08:20:45 08:24:54 55° 288° (WNW) 08:29:03 437.485
PRISM 20 Nov 08:22:17 08:24:12 13° 56° (ENE) 08:26:08 437.425
XW-2F 20 Nov 08:23:47 08:24:02 10° 303° (WNW) 08:24:17 145.980 - 146.000
AAUSAT CUBESAT 2 20 Nov 08:30:48 08:35:01 89° 94° (E) 08:39:13 437.432
CUBEBUG 2 20 Nov 08:32:55 08:36:57 44° 290° (WNW) 08:40:53 437.445
CUTE-I 20 Nov 08:33:51 08:37:45 21° 304° (WNW) 08:41:39 437.470
UNISAT 6 20 Nov 08:36:05 08:40:22 41° 68° (ENE) 08:44:34 437.425
AO-73 20 Nov 08:40:05 08:44:12 63° 101° (E) 08:48:19 145.935
TIGRISAT 20 Nov 08:40:44 08:45:02 42° 69° (ENE) 08:49:15 435.000
Oscar 11 20 Nov 08:57:40 09:02:00 67° 102° (ESE) 09:06:18 .
Max Valier Satellite 20 Nov 08:59:19 08:59:29 10° 87° (E) 08:59:39 145.860
PCSat 20 Nov 09:10:08 09:15:35 71° 52° (NE) 09:21:00 145.827
DELFI C3 20 Nov 09:12:00 09:15:10 22° 93° (E) 09:18:17 145.870
YUBILEINY 20 Nov 09:13:21 09:17:50 15° 316° (NW) 09:22:21 435.215
AIST 2D 20 Nov 09:16:57 09:17:46 11° 59° (ENE) 09:18:36 435.315
ZACube-1 20 Nov 09:24:44 09:28:38 41° 291° (WNW) 09:32:32 437.345
CUTE 1.7 + AOD 2 20 Nov 09:26:08 09:27:19 11° 304° (NW) 09:28:31 437.475
AO-85 20 Nov 09:26:39 09:27:59 11° 5° (N) 09:29:21 145.980
UWE-3 20 Nov 09:32:39 09:35:49 21° 297° (WNW) 09:38:56 435.000/436.395/437.385
BEESAT 3 20 Nov 09:37:12 09:39:51 17° 27° (NNE) 09:42:28 437.485
XW-2A 20 Nov 09:43:49 09:45:05 12° 299° (WNW) 09:46:21 145.665 - 145.685
HO-68 20 Nov 09:54:20 09:59:38 23° 311° (NW) 10:04:55 435.675
PRISM 20 Nov 09:54:42 09:58:50 87° 254° (WSW) 10:03:02 437.425
FO-29 20 Nov 10:05:17 10:09:27 17° 280° (W) 10:13:53 435.910
AAUSAT CUBESAT 2 20 Nov 10:07:58 10:09:49 13° 303° (WNW) 10:11:41 437.432
DUCHIFAT 1 20 Nov 10:08:20 10:10:48 15° 59° (ENE) 10:13:15 145.980
UNISAT 6 20 Nov 10:13:23 10:17:12 26° 266° (W) 10:20:59 437.425
EO-79 20 Nov 10:13:32 10:16:43 21° 62° (ENE) 10:19:54 145.935-145.965
AO-73 20 Nov 10:17:26 10:20:00 16° 300° (WNW) 10:22:34 145.935
NANOSAT C BR1 20 Nov 10:17:31 10:20:39 20° 62° (ENE) 10:23:47 145.865
TIGRISAT 20 Nov 10:18:04 10:21:51 25° 266° (W) 10:25:35 435.000
POLYITAN 1 20 Nov 10:28:03 10:31:39 28° 65° (ENE) 10:35:15 437.675
Max Valier Satellite 20 Nov 10:30:07 10:33:47 75° 286° (WNW) 10:37:27 145.860
EO-88 20 Nov 10:30:47 10:34:27 78° 103° (ESE) 10:38:06 145.990 - 145.960
Oscar 11 20 Nov 10:34:53 10:37:40 17° 300° (WNW) 10:40:26 .
BEESAT 2 20 Nov 10:45:59 10:49:07 21° 31° (NNE) 10:52:13 435.950
DELFI C3 20 Nov 10:46:17 10:50:03 39° 291° (WNW) 10:53:46 145.870
AIST 2D 20 Nov 10:46:56 10:50:24 75° 257° (WSW) 10:53:54 435.315
QB50P2 20 Nov 10:50:40 10:54:46 49° 70° (ENE) 10:58:53 145.880/145.840
PCSat 20 Nov 10:54:21 10:58:29 22° 252° (WSW) 11:02:35 145.827
LO-87 20 Nov 10:58:49 11:01:41 22° 94° (E) 11:04:32 145.935 - 145.965
BUGSAT 1 20 Nov 11:04:41 11:07:11 16° 59° (ENE) 11:09:41 437.445
AO-85 20 Nov 11:06:39 11:10:02 21° 29° (NNE) 11:13:36 145.980
BEESAT 3 20 Nov 11:14:07 11:18:05 70° 48° (NE) 11:21:59 437.485
SPROUT 20 Nov 11:32:08 11:33:15 11° 86° (E) 11:34:23 437.525
ESTCUBE 1 20 Nov 11:36:44 11:41:06 45° 99° (E) 11:45:27 437.505/2401.250
DUCHIFAT 1 20 Nov 11:41:44 11:45:57 73° 258° (WSW) 11:50:10 145.980
Oscar 19 20 Nov 11:43:57 11:48:06 26° 60° (ENE) 11:52:18 437.125/150
EO-79 20 Nov 11:48:03 11:52:10 49° 260° (W) 11:56:18 145.935-145.965
NANOSAT C BR1 20 Nov 11:51:55 11:56:02 50° 260° (W) 12:00:10 145.865
Gurwin Techsat 1B 20 Nov 12:01:35 12:06:01 28° 61° (ENE) 12:10:29 435.225
VELOX 1 20 Nov 12:02:26 12:05:05 15° 89° (E) 12:07:42 145.980
POLYITAN 1 20 Nov 12:03:25 12:07:20 35° 263° (W) 12:11:14 437.675
EO-88 20 Nov 12:06:20 12:07:32 11° 301° (WNW) 12:08:44 145.990 - 145.960
AO-7 20 Nov 12:21:21 12:27:10 22° 41° (NE) 12:33:00 .
BEESAT 2 20 Nov 12:23:16 12:27:20 82° 234° (SW) 12:31:21 435.950
M-CUBED/EXP-1 PRIME 20 Nov 12:24:30 12:26:44 15° 52° (NE) 12:29:04 437.505
QB50P2 20 Nov 12:27:42 12:30:49 20° 268° (W) 12:33:56 145.880/145.840
LO-87 20 Nov 12:31:59 12:35:07 29° 292° (WNW) 12:38:14 145.935 - 145.965
BUGSAT 1 20 Nov 12:37:52 12:42:03 70° 258° (WSW) 12:46:14 437.445
AO-85 20 Nov 12:46:32 12:51:07 76° 49° (NE) 12:56:04 145.980
DX 1 20 Nov 12:51:42 12:53:11 11° 87° (E) 12:54:40 434.975-435.025
BEESAT 3 20 Nov 12:52:45 12:55:08 16° 248° (WSW) 12:57:30 437.485
50 SAT 20 Nov 13:02:59 13:04:21 12° 90° (E) 13:05:42 437.505
SPROUT 20 Nov 13:05:31 13:09:48 89° 284° (WNW) 13:14:02 437.525
ESTCUBE 1 20 Nov 13:13:59 13:17:41 25° 297° (WNW) 13:21:23 437.505/2401.250
Oscar 19 20 Nov 13:22:07 13:27:08 54° 259° (W) 13:32:11 437.125/150
UKube-1 20 Nov 13:34:16 13:37:26 19° 92° (E) 13:40:34 .
ITAMSAT 1 20 Nov 13:35:08 13:38:50 20° 56° (NE) 13:42:31 435.822/435.867
O/OREOS (USA 219) 20 Nov 13:37:00 13:41:17 40° 108° (ESE) 13:45:36 437.305
VELOX 1 20 Nov 13:37:33 13:42:01 70° 287° (WNW) 13:46:26 145.980
Gurwin Techsat 1B 20 Nov 13:40:31 13:45:42 53° 260° (W) 13:50:56 435.225
M-CUBED/EXP-1 PRIME 20 Nov 13:57:02 14:00:36 66° 253° (WSW) 14:04:30 437.505
BEESAT 2 20 Nov 14:03:18 14:04:21 11° 251° (WSW) 14:05:24 435.950
AO-7 20 Nov 14:10:22 14:18:32 67° 64° (ENE) 14:26:46 .
DX 1 20 Nov 14:25:35 14:30:02 89° 267° (W) 14:34:24 434.975-435.025
AO-85 20 Nov 14:27:48 14:31:08 19° 246° (WSW) 14:34:38 145.980
50 SAT 20 Nov 14:33:35 14:36:44 47° 288° (WNW) 14:39:50 437.505
DOVE 4 20 Nov 14:34:35 14:36:46 13° 52° (NE) 14:38:59 437.250
MOZHAYETS 4 20 Nov 14:39:07 14:42:24 19° 91° (E) 14:45:40
SPROUT 20 Nov 14:43:09 14:45:01 13° 304° (WNW) 14:46:53 437.525
UKube-1 20 Nov 15:09:31 15:13:45 52° 290° (WNW) 15:17:56 .
ITAMSAT 1 20 Nov 15:12:29 15:17:43 78° 255° (WSW) 15:23:00 435.822/435.867
VELOX 1 20 Nov 15:16:20 15:17:38 11° 307° (NW) 15:18:55 145.980
O/OREOS (USA 219) 20 Nov 15:16:41 15:20:48 31° 308° (NW) 15:24:55 437.305
YUBILEINY 20 Nov 15:17:44 15:25:09 29° 59° (ENE) 15:32:32 435.215
NO-84 20 Nov 15:23:28 15:26:24 22° 132° (SE) 15:29:29 435.350 FM
BEESAT 20 Nov 15:46:38 15:51:21 59° 101° (ESE) 15:56:02 436.000
ITUPSAT 1 20 Nov 15:55:48 16:00:34 70° 103° (ESE) 16:05:19 437.325
DX 1 20 Nov 16:03:22 16:05:32 14° 304° (NW) 16:07:42 434.975-435.025
AO-7 20 Nov 16:04:33 16:11:52 34° 265° (W) 16:19:17 .
DOVE 4 20 Nov 16:08:24 16:13:24 64° 71° (ENE) 16:18:39 437.250
MOZHAYETS 4 20 Nov 16:15:25 16:19:55 57° 289° (WNW) 16:24:23
CUBESAT XI-V 20 Nov 16:24:50 16:29:24 49° 99° (E) 16:33:58 437.345
KAITUO 1B 20 Nov 16:28:17 16:30:25 15° 61° (ENE) 16:32:32 145.475/437.950
KKS-1 20 Nov 16:36:35 16:39:28 17° 90° (E) 16:42:18 437.445
CUTE-I 20 Nov 16:40:01 16:44:43 32° 62° (ENE) 16:49:27 437.470
XW-2D 20 Nov 16:40:13 16:43:20 26° 66° (ENE) 16:46:30 145.860 - 145.880
RS-15 20 Nov 16:42:15 16:46:09 12° 89° (E) 16:50:01 29.354- 29.394
HO-68 20 Nov 16:52:16 16:58:16 30° 54° (NE) 17:04:16 435.675
XW-2B 20 Nov 16:54:41 16:58:05 35° 69° (ENE) 17:01:32 145.730 - 145.750
ITAMSAT 1 20 Nov 16:55:57 16:58:03 12° 274° (W) 17:00:10 435.822/435.867
NO-84 20 Nov 16:59:27 17:03:19 84° 333° (NNW) 17:07:29 435.350 FM
STARS 20 Nov 17:03:28 17:05:27 13° 88° (E) 17:07:25 437.465
CUTE 1.7 + AOD 2 20 Nov 17:10:28 17:13:11 17° 60° (ENE) 17:15:55 437.475
NUDT-PHONESAT 20 Nov 17:12:34 17:15:58 38° 70° (ENE) 17:19:24 437.300
YUBILEINY 20 Nov 17:14:11 17:23:05 82° 263° (W) 17:31:54 435.215
XW-2C 20 Nov 17:19:53 17:23:35 68° 74° (ENE) 17:27:20 145.795 - 145.815
LilacSat-2 20 Nov 17:21:00 17:24:44 75° 75° (ENE) 17:28:31 437.200
BEESAT 20 Nov 17:25:08 17:28:45 22° 301° (WNW) 17:32:20 436.000
XW-2F 20 Nov 17:31:12 17:34:55 85° 77° (ENE) 17:38:40 145.980 - 146.000
ITUPSAT 1 20 Nov 17:34:36 17:37:54 19° 302° (WNW) 17:41:12 437.325
SEEDS 20 Nov 17:41:42 17:44:51 21° 63° (ENE) 17:48:02 437.485
DOVE 4 20 Nov 17:47:42 17:51:33 21° 272° (W) 17:55:29 437.250
AAUSAT CUBESAT 2 20 Nov 17:51:47 17:53:48 13° 58° (ENE) 17:55:49 437.432
CUBEBUG 2 20 Nov 17:58:29 18:02:30 31° 66° (ENE) 18:06:24 437.445
KAITUO 1B 20 Nov 18:00:21 18:03:58 56° 260° (W) 18:07:38 145.475/437.950
CUBESAT XI-V 20 Nov 18:02:45 18:06:30 24° 298° (WNW) 18:10:15 437.345
AO-73 20 Nov 18:06:26 18:07:57 12° 57° (ENE) 18:09:29 145.935
KKS-1 20 Nov 18:12:00 18:16:27 64° 289° (WNW) 18:20:51 437.445
XW-2D 20 Nov 18:14:10 18:17:27 29° 265° (W) 18:20:46 145.860 - 145.880
CUTE-I 20 Nov 18:19:29 18:24:37 46° 261° (W) 18:29:49 437.470
Oscar 11 20 Nov 18:23:17 18:25:05 12° 56° (NE) 18:26:52 .
XW-2B 20 Nov 18:29:27 18:32:21 21° 267° (W) 18:35:18 145.730 - 145.750
NO-84 20 Nov 18:37:14 18:41:04 40° 353° (N) 18:45:04 435.350 FM
STARS 20 Nov 18:37:57 18:42:22 81° 288° (WNW) 18:46:45 437.465
HO-68 20 Nov 18:38:14 18:45:26 74° 255° (WSW) 18:52:41 435.675
STRAND 1 20 Nov 18:42:35 18:45:54 17° 89° (E) 18:49:10 437.568
RS-15 20 Nov 18:43:48 18:55:26 52° 113° (ESE) 19:06:57 29.354- 29.394
XW-2A 20 Nov 18:44:22 18:47:29 39° 71° (ENE) 18:50:37 145.665 - 145.685
CUTE 1.7 + AOD 2 20 Nov 18:44:25 18:48:34 63° 259° (W) 18:52:47 437.475
NUDT-PHONESAT 20 Nov 18:47:21 18:49:59 19° 268° (W) 18:52:37 437.300
ZACube-1 20 Nov 18:48:29 18:52:15 30° 66° (ENE) 18:55:58 437.345
UWE-3 20 Nov 18:56:09 19:00:32 63° 73° (ENE) 19:04:49 435.000/436.395/437.385
XW-2C 20 Nov 18:56:53 18:58:13 12° 272° (W) 18:59:34 145.795 - 145.815
LilacSat-2 20 Nov 18:58:42 18:59:31 11° 273° (W) 19:00:21 437.200
YUBILEINY 20 Nov 19:12:32 19:18:29 21° 286° (WNW) 19:24:26 435.215
SEEDS 20 Nov 19:16:14 19:20:15 46° 261° (W) 19:24:19 437.485
FO-29 20 Nov 19:22:13 19:27:22 18° 82° (E) 19:32:21 435.910
AAUSAT CUBESAT 2 20 Nov 19:24:31 19:28:38 82° 255° (WSW) 19:32:50 437.432
CUBEBUG 2 20 Nov 19:34:52 19:39:03 34° 264° (W) 19:43:08 437.445
AO-73 20 Nov 19:39:14 19:43:32 83° 75° (ENE) 19:47:46 145.935
KKS-1 20 Nov 19:51:20 19:52:08 10° 308° (NW) 19:52:55 437.445
Oscar 11 20 Nov 19:56:14 20:00:32 85° 72° (ENE) 20:04:52 .
DELFI C3 20 Nov 20:01:13 20:04:23 23° 64° (ENE) 20:07:34 145.870
NO-84 20 Nov 20:15:00 20:19:02 46° 14° (NNE) 20:23:10 435.350 FM
STARS 20 Nov 20:16:09 20:17:59 12° 306° (NW) 20:19:50 437.465
XW-2A 20 Nov 20:18:22 20:20:23 15° 269° (W) 20:22:24 145.665 - 145.685
STRAND 1 20 Nov 20:20:32 20:25:41 76° 287° (WNW) 20:30:46 437.568
ZACube-1 20 Nov 20:24:38 20:28:30 32° 264° (W) 20:32:19 437.345
HO-68 20 Nov 20:30:15 20:34:25 16° 275° (W) 20:38:36 435.675
UWE-3 20 Nov 20:34:36 20:37:22 16° 270° (W) 20:40:07 435.000/436.395/437.385
RS-15 20 Nov 20:55:26 21:07:45 67° 319° (NW) 21:19:53 29.354- 29.394
nSIGHT-1 20 Nov 21:01:50 21:03:56 16° 140° (SE) 21:06:02 .
FO-29 20 Nov 21:05:44 21:13:41 76° 103° (ESE) 21:21:14 435.910
ESTCUBE 1 20 Nov 21:07:25 21:08:35 11° 53° (NE) 21:09:45 437.505/2401.250
EO-88 20 Nov 21:11:59 21:15:34 62° 73° (ENE) 21:19:10 145.990 - 145.960
Max Valier Satellite 20 Nov 21:12:28 21:16:08 89° 76° (ENE) 21:19:49 145.860
AO-73 20 Nov 21:18:48 21:20:20 12° 273° (W) 21:21:52 145.935
DELFI C3 20 Nov 21:35:14 21:38:56 38° 263° (W) 21:42:42 145.870
Oscar 11 20 Nov 21:35:47 21:37:17 12° 274° (W) 21:38:48 .
LO-87 20 Nov 21:38:55 21:41:34 19° 64° (ENE) 21:44:13 145.935 - 145.965
ISS 20 Nov 21:43:27 21:46:17 28° 145° (SE) 21:49:09 437.550
SO-50 20 Nov 21:48:45 21:52:33 28° 117° (ESE) 21:56:22 436.795
NO-84 20 Nov 21:52:23 21:56:36 68° 214° (SW) 22:00:51 435.350 FM
UNISAT 6 20 Nov 21:59:38 22:03:48 47° 99° (E) 22:07:55 437.425
STRAND 1 20 Nov 22:01:20 22:04:02 14° 307° (NW) 22:06:43 437.568
O/OREOS (USA 219) 20 Nov 22:03:30 22:07:21 26° 49° (NE) 22:11:10 437.305
TIGRISAT 20 Nov 22:04:06 22:08:17 48° 99° (E) 22:12:23 435.000
SPROUT 20 Nov 22:28:39 22:31:20 16° 59° (ENE) 22:34:01 437.525
